Regional Weather Roundup
Issued by NWS Mobile, AL

Home | Current Version | Previous Version | Text Only | Print | Product List | Glossary On
Versions: 1 2 3 4 5 6 7 8 9 10 11 12 13 14 15 16 17 18 19 20 21 22 23 24 25 26 27 28 29 30 31 32 33 34 35 36 37 38 39 40 41 42 43 44 45 46 47 48 49 50
000
ASUS44 KMOB 241912
RWRMOB
REGIONAL WEATHER ROUNDUP
NATIONAL WEATHER SERVICE MOBILE AL
100 PM CST TUE JAN 24 2017

NOTE: "FAIR" INDICATES FEW OR NO CLOUDS BELOW 12,000 FEET WITH NO
      SIGNIFICANT WEATHER AND/OR OBSTRUCTIONS TO VISIBILITY.

  * THESE STATIONS ARE PART OF THE UNIVERSITY OF SOUTH ALABAMA
    MESONET AND ARE NOT UNDER NWS OR FAA QUALITY CONTROL.

ALZ061>064-242000-
COASTAL ALABAMA

CITY           SKY/WX    TMP DP  RH WIND       PRES   REMARKS
MOBILE REG APT SUNNY     66  39  37 VRB3      29.92F
BROOKLEY FIELD SUNNY     62  42  47 E7        29.94F
USA CAMPUS*      N/A     64  39  39 NE5       29.91F
DOG RIVER*       N/A     61  43  51 NE5       30.65F


CITY           SKY/WX    TMP DP  RH WIND       PRES   REMARKS
GULF SHORES    SUNNY     61  47  60 S8        29.92F

$$

ALZ051>060-242000-
INTERIOR SOUTHWEST AND SOUTH CENTRAL ALABAMA

CITY           SKY/WX    TMP DP  RH WIND       PRES   REMARKS
GREENVILLE     SUNNY     64  36  35 CALM      29.87F
EVERGREEN      SUNNY     63  38  39 CALM      29.90F
ATMORE*          N/A     61  41  48 NE2       29.93F
ANDALUSIA/OPP  SUNNY     65  39  38 W6        29.89F
ANDALUSIA*       N/A     63  37  39 NW9       29.90F
FLORALA APT    SUNNY     63  39  41 NW5       29.91F
FLORALA*         N/A     63  39  42 W6        30.58F

$$

FLZ001>006-242000-
WESTERN FLORIDA PANHANDLE

CITY           SKY/WX    TMP DP  RH WIND       PRES   REMARKS
PENSACOLA      SUNNY     66  41  40 VRB5      29.90F
NAS PENSACOLA  SUNNY     61  45  55 S7        29.91F
MILTON         SUNNY     62  40  44 NW6       29.90F
WHTNG S FIELD  SUNNY     67  41  38 W5        29.91F


CITY           SKY/WX    TMP DP  RH WIND       PRES   REMARKS
JAY*             N/A     63  39  42 CALM      29.91F
DUKE FIELD     SUNNY     63  39  40 N2        29.89F
CRESTVIEW      SUNNY     63  39  41 VRB3      29.91F
VALPARAISO     SUNNY     65  38  36 CALM      29.89F
DESTIN         SUNNY     67  43  41 N6        29.90F

$$

MSZ076-079-242000-
INTERIOR SOUTHEAST MISSISSIPPI

CITY           SKY/WX    TMP DP  RH WIND       PRES   REMARKS
LEAKESVILLE*   NOT AVBL
AGRICOLA*      NOT AVBL

$$

MARINE OBSERVATIONS

STATION/POSITION TIME  TEMP    WIND        PRES    WAVE
                       AIR SEA DIR/SP/G            HT/PER
                 (UTC) (F)     (DEG/KT/KT) (MB)    (FT/S)
PASCAGOULA       1848   57     160/  8/ 10 1013.5F
PETIT BOIS ISLND 1848   57     160/  5/  6 1014.3F
GRAND BAY        1745   55     160/  8     1015.0F
KATRINA CUT      1830          100/  6     1013.5F
CEDAR POINT      1830   54     100/  5     1013.5F
E DAUPHIN ISLAND 1800   53      90/  2/  3 1013.8F
MIDDLE BAY LIGHT 1830   60     310/  2     1013.5F
USCG MOBILE BAY  1848   58 60  160/  5/  6 1013.9F
STATE DOCKS      1848      60              1013.2F
MEAHER PARK      1830   57     250/  7     1013.2F
WEEKS BAY        1730   61                   N/A
FORT MORGAN      1848   55     200/  4/  5   N/A
12 S ORANGE BCH  1850   56 65  200/  2/  2 1013.3F   1/ 7
PENSACOLA BAY    1848      61  160/  3/  5 1012.9F
67 S FORT MORGAN 1830   67                 1013.9F

$$

SELECTED LOCATIONS ACROSS THE REGION

CITY           SKY/WX    TMP DP  RH WIND       PRES   REMARKS
NEW ORLEANS    MOSUNNY   67  47  48 S9        29.92F
GULFPORT       SUNNY     60  46  59 S7        29.93F
PASCAGOULA AP  SUNNY     66  40  38 VRB6      29.92F
PASCAGOULA*    NOT AVBL
HATTIESBURG    SUNNY     64  39  39 CALM      29.92F
LAUREL         SUNNY     63  39  42 CALM      29.93F
MERIDIAN       SUNNY     63  40  42 CALM      29.90F
JACKSON        SUNNY     66  40  38 S7        29.88F
MONTGOMERY     SUNNY     61  36  39 VRB5      29.89F
TROY           SUNNY     63  36  36 VRB6      29.88F
ASHFORD*         N/A     63  37  39 NW9       29.90F
DOTHAN         SUNNY     63  42  46 VRB7      29.91F
PANAMA CITY    SUNNY     66  42  41 CALM      29.89F

$$




USA.gov is the U.S. government's official web portal to all federal, state and local government web resources and services.